カタログに戻る

KONDOR FKA 2

運用中軍事SSO
NORAD 62138·PAYLOAD·🇷🇺 Russia

打ち上げ Nov 29, 2024 から Vostochny Cosmodrome

Loading…

次のパス (今後24時間)

TLE

最新Source: Space-Track

元期: Sep 14, 2026, 14:16 UTC

1 62138U 24223A   26257.59449493  .00002788  00000-0  13375-3 0  9999
2 62138  97.4427  99.7496 0001758  88.6483 271.4953 15.19713740 99284

AllMySatでKONDOR FKA 2をリアルタイム追跡

Download on the App Store